Angleton, TX

10:19 PM CDT on September 16, 2019 (GMT -0500)
Brazoria County

Weather History for KLBX - August, 2019

Change the Weather History Date:

Sunday, August 25, 2019

  Actual Average Record
Temperature  
Mean Temperature 82 °F -  
Max Temperature 87 °F 88 °F 97 °F (2014)
Min Temperature 77 °F 72 °F 69 °F (1997)
Cooling Degree Days 17    
Growing Degree Days 32 (Base 50)    
Moisture  
Dew Point 76 °F    
Average Humidity 85    
Maximum Humidity 96    
Minimum Humidity 69    
Precipitation  
Precipitation 0.67 in - - ()
Sea Level Pressure  
Sea Level Pressure 29.86 in    
Wind  
Wind Speed 4 mph ()    
Max Wind Speed 14 mph    
Max Gust Speed 25 mph    
Visibility 8.2 miles    
Events Fog , Rain , Thunderstorm    
Averages and records for this station are not official NWS values.
T = Trace of Precipitation, MM = Missing Value Source: Averaged Metar Reports

Daily Weather History Graph

Daily Weather History Graph

Search for Another Location

Airport or City:

Astronomy

Aug. 25, 2019 Rise Set
Actual Time 6:55 AM CDT 7:51 PM CDT
Civil Twilight 6:31 AM CDT 8:16 PM CDT
Nautical Twilight 6:02 AM CDT 8:44 PM CDT
Astronomical Twilight 5:32 AM CDT 9:14 PM CDT
Moon 1:45 AM CDT (8/25) 3:57 PM CDT (8/25)
Length of Visible Light 13h 44m
Length of Day
12h 55m
Waning Crescent, 29% of the Moon is Illuminated
Aug 25
Waning Crescent
Aug 30
New
Sep 5
First Quarter
Sep 13
Full
Sep 21
Last Quarter

Hourly Weather History & Observations

Time (CDT) Temp. Heat Index Dew Point Humidity Pressure Visibility Wind Dir Wind Speed Gust Speed Precip Events Conditions
12:53 AM 79.0 °F - 75.9 °F 90% 29.90 in 10.0 mi Calm Calm - N/A   Clear
1:53 AM 78.1 °F - 75.9 °F 93% 29.87 in 10.0 mi Calm Calm - N/A   Clear
2:53 AM 78.1 °F - 75.0 °F 90% 29.86 in 10.0 mi Calm Calm - N/A   Clear
3:53 AM 77.0 °F - 75.9 °F 96% 29.86 in 10.0 mi Calm Calm - N/A   Clear
4:53 AM 78.1 °F - 75.9 °F 93% 29.87 in 10.0 mi Calm Calm - N/A   Mostly Cloudy
5:53 AM 78.1 °F - 75.9 °F 93% 29.86 in 10.0 mi Calm Calm - N/A   Mostly Cloudy
6:53 AM 78.1 °F - 75.9 °F 93% 29.86 in 10.0 mi North 3.5 mph - N/A   Clear
7:53 AM 79.0 °F - 77.0 °F 94% 29.87 in 10.0 mi Calm Calm - 0.00 in   Clear
8:53 AM 82.9 °F 92.8 °F 78.1 °F 85% 29.89 in 10.0 mi Calm Calm - N/A   Scattered Clouds
9:53 AM 84.9 °F 95.3 °F 77.0 °F 77% 29.89 in 10.0 mi SSW 3.5 mph - N/A   Partly Cloudy
10:28 AM 86.0 °F 98.3 °F 78.1 °F 77% 29.90 in 10.0 mi SSW 5.8 mph - N/A Thunderstorm Thunderstorm
10:38 AM 80.1 °F 84.5 °F 73.9 °F 81% 29.90 in 4.0 mi SW 12.7 mph 25.3 mph 0.05 in Rain , Thunderstorm Light Thunderstorms and Rain
10:41 AM 79.0 °F - 73.9 °F 84% 29.91 in 1.5 mi WSW 8.1 mph 20.7 mph 0.13 in Rain , Thunderstorm Heavy Thunderstorms and Rain
10:44 AM 78.1 °F - 73.9 °F 87% 29.92 in 0.8 mi West 8.1 mph - 0.26 in Rain , Thunderstorm Heavy Rain
10:53 AM 77.0 °F - 73.9 °F 90% 29.92 in 0.2 mi SSW 10.4 mph - 0.57 in Fog , Rain , Thunderstorm Heavy Rain
11:00 AM 77.0 °F - 73.9 °F 90% 29.91 in 0.8 mi SSW 12.7 mph - 0.07 in Rain Heavy Rain
11:06 AM 77.0 °F - 73.9 °F 90% 29.91 in 2.0 mi South 11.5 mph - 0.09 in Rain Heavy Rain
11:09 AM 77.0 °F - 73.9 °F 90% 29.90 in 3.0 mi SSW 9.2 mph - 0.09 in Rain , Thunderstorm Light Rain
11:53 AM 80.1 °F 85.1 °F 75.0 °F 85% 29.88 in 10.0 mi SSW 4.6 mph - 0.09 in Thunderstorm Scattered Clouds
12:05 PM 81.0 °F 86.7 °F 75.0 °F 82% 29.88 in 10.0 mi Calm Calm - N/A   Partly Cloudy
12:53 PM 81.0 °F 87.9 °F 77.0 °F 88% 29.89 in 4.0 mi SW 4.6 mph - 0.01 in Rain Light Rain
1:53 PM 82.9 °F 90.2 °F 75.0 °F 77% 29.88 in 10.0 mi SSW 8.1 mph - 0.00 in Rain Light Rain
2:53 PM 87.1 °F 98.8 °F 77.0 °F 72% 29.85 in 10.0 mi South 8.1 mph - 0.00 in   Partly Cloudy
3:53 PM 86.0 °F 96.0 °F 75.9 °F 72% 29.84 in 10.0 mi ESE 3.5 mph - N/A   Clear
4:26 PM 86.0 °F 95.1 °F 75.0 °F 70% 29.84 in 10.0 mi SE 9.2 mph - N/A   Mostly Cloudy
4:36 PM 87.1 °F 97.3 °F 75.9 °F 69% 29.83 in 10.0 mi SSE 5.8 mph - N/A   Mostly Cloudy
4:53 PM 86.0 °F 95.1 °F 75.0 °F 70% 29.82 in 10.0 mi SE 8.1 mph - N/A   Partly Cloudy
5:53 PM 84.9 °F 94.1 °F 75.9 °F 74% 29.82 in 10.0 mi SE 9.2 mph - N/A   Scattered Clouds
6:05 PM 84.9 °F 94.1 °F 75.9 °F 74% 29.82 in 10.0 mi SE 9.2 mph - N/A   Mostly Cloudy
6:53 PM 84.0 °F 93.7 °F 77.0 °F 79% 29.80 in 10.0 mi SSE 12.7 mph - N/A   Overcast
7:53 PM 82.0 °F 90.2 °F 77.0 °F 85% 29.79 in 10.0 mi South 13.8 mph - N/A   Mostly Cloudy
8:21 PM 82.0 °F 90.2 °F 77.0 °F 85% 29.79 in 10.0 mi South 9.2 mph - N/A   Scattered Clouds
8:43 PM 81.0 °F 87.9 °F 77.0 °F 88% 29.80 in 10.0 mi South 9.2 mph - N/A   Mostly Cloudy
8:53 PM 81.0 °F 87.9 °F 77.0 °F 88% 29.80 in 10.0 mi South 8.1 mph - N/A   Mostly Cloudy
9:00 PM 81.0 °F 87.9 °F 77.0 °F 88% 29.80 in 10.0 mi South 9.2 mph - N/A   Scattered Clouds
9:53 PM 80.1 °F 85.8 °F 77.0 °F 90% 29.81 in 10.0 mi South 6.9 mph - N/A   Clear
10:53 PM 79.0 °F - 77.0 °F 94% 29.82 in 9.0 mi South 4.6 mph - N/A   Clear
11:53 PM 79.0 °F - 77.0 °F 94% 29.83 in 7.0 mi Calm Calm - N/A   Partly Cloudy